Dalzell, IL

3:22 AM CST on February 13, 2016 (GMT -0600)
Illinois Valley Regional-Duncan

Weather History for KVYS - October, 2012

Change the Weather History Date:

Saturday, October 13, 2012

  Actual Average Record
Temperature  
Mean Temperature 56 °F -  
Max Temperature 67 °F 66 °F 86 °F (1975)
Min Temperature 46 °F 42 °F 23 °F (1988)
Degree Days  
Heating Degree Days 8    
Growing Degree Days 6 (Base 50)    
Moisture  
Dew Point 52 °F    
Average Humidity 82    
Maximum Humidity 95    
Minimum Humidity 50    
Precipitation  
Precipitation 0.30 in - - ()
Sea Level Pressure  
Sea Level Pressure 29.96 in    
Wind  
Wind Speed 11 mph (South)    
Max Wind Speed 20 mph    
Max Gust Speed 25 mph    
Visibility 8 miles    
Events Rain    
Averages and records for this station are not official NWS values.
T = Trace of Precipitation, MM = Missing Value Source: NWS Daily Summary

Daily Weather History Graph

Daily Weather History Graph

Search for Another Location

Airport or City:

Trip Planner

Search our weather history database for the weather conditions in past years. The results will help you decide how hot, cold, wet, or windy it might be!

Date:

Astronomy

Oct. 13, 2012 Rise Set
Actual Time 7:06 AM CDT 6:17 PM CDT
Civil Twilight 6:38 AM CDT 6:45 PM CDT
Nautical Twilight 6:06 AM CDT 7:17 PM CDT
Astronomical Twilight 5:34 AM CDT 7:49 PM CDT
Moon 4:55 AM CDT 5:02 PM CDT
Length of Visible Light 12h 06m
Length of Day
11h 11m
Waning Crescent, 5% of the Moon is Illuminated
Oct 13
Waning Crescent
Oct 15
New
Oct 21
First Quarter
Oct 29
Full
Nov 6
Last Quarter

Hourly Weather History & Observations

Time (CDT) Temp. Windchill Dew Point Humidity Pressure Visibility Wind Dir Wind Speed Gust Speed Precip Events Conditions
12:35 AM 46.4 °F 43.5 °F 30.2 °F 53% 30.23 in 10.0 mi SE 5.8 mph - N/A   Clear
12:55 AM 48.2 °F - 30.2 °F 50% 30.23 in 10.0 mi SE 6.9 mph - N/A   Mostly Cloudy
1:15 AM 48.2 °F - 32.0 °F 54% 30.21 in 10.0 mi SSE 10.4 mph - N/A   Overcast
1:35 AM 48.6 °F - 34.0 °F 57% 30.21 in 10.0 mi SE 9.2 mph - N/A Rain Light Rain
1:55 AM 48.6 °F - 35.1 °F 60% 30.20 in 10.0 mi SE 10.4 mph - N/A   Light Drizzle
2:15 AM 48.7 °F - 36.0 °F 61% 30.18 in 10.0 mi SE 10.4 mph - N/A   Light Drizzle
2:35 AM 48.7 °F - 37.0 °F 64% 30.18 in 10.0 mi SSE 6.9 mph - N/A   Light Drizzle
2:55 AM 48.9 °F - 38.5 °F 67% 30.14 in 10.0 mi SE 15.0 mph 19.6 mph N/A   Overcast
3:15 AM 49.1 °F - 38.7 °F 67% 30.13 in 10.0 mi SSE 13.8 mph - N/A   Overcast
3:35 AM 49.3 °F - 39.2 °F 68% 30.12 in 10.0 mi SSE 15.0 mph - N/A   Overcast
3:55 AM 49.5 °F - 39.2 °F 68% 30.10 in 10.0 mi SSE 16.1 mph - N/A   Mostly Cloudy
4:15 AM 50.0 °F - 39.4 °F 67% 30.10 in 10.0 mi SSE 13.8 mph - N/A   Scattered Clouds
4:35 AM 49.6 °F - 39.7 °F 69% 30.09 in 10.0 mi SSE 12.7 mph - N/A   Mostly Cloudy
4:55 AM 50.0 °F - 41.0 °F 71% 30.10 in 10.0 mi SSE 11.5 mph - N/A   Mostly Cloudy
5:15 AM 50.0 °F - 41.0 °F 71% 30.11 in 10.0 mi SSE 10.4 mph - N/A   Overcast
5:35 AM 50.5 °F - 41.4 °F 71% 30.09 in 10.0 mi SSE 11.5 mph - N/A   Overcast
5:55 AM 50.9 °F - 41.9 °F 71% 30.09 in 10.0 mi SSE 10.4 mph - N/A   Overcast
6:15 AM 50.9 °F - 42.3 °F 72% 30.08 in 10.0 mi SSE 9.2 mph - N/A   Mostly Cloudy
6:35 AM 50.9 °F - 42.8 °F 74% 30.08 in 10.0 mi SSE 10.4 mph - N/A   Overcast
6:55 AM 50.9 °F - 43.0 °F 74% 30.07 in 10.0 mi South 10.4 mph - N/A   Overcast
7:15 AM 50.9 °F - 43.3 °F 75% 30.06 in 10.0 mi South 11.5 mph - N/A   Overcast
7:35 AM 51.3 °F - 43.9 °F 76% 30.05 in 10.0 mi South 9.2 mph - N/A   Overcast
7:55 AM 52.2 °F - 45.1 °F 77% 30.04 in 10.0 mi South 10.4 mph - N/A   Overcast
8:15 AM 54.7 °F - 47.8 °F 78% 30.02 in 10.0 mi South 15.0 mph - N/A   Mostly Cloudy
8:35 AM 55.4 °F - 48.2 °F 77% 30.01 in 10.0 mi South 13.8 mph - N/A   Mostly Cloudy
8:55 AM 54.7 °F - 48.2 °F 79% 30.01 in 10.0 mi South 18.4 mph - N/A   Scattered Clouds
9:15 AM 55.4 °F - 48.2 °F 77% 30.02 in 10.0 mi South 16.1 mph - N/A Rain Light Rain
9:35 AM 55.4 °F - 50.0 °F 82% 30.03 in 10.0 mi SSW 17.3 mph - N/A Rain Light Rain
9:55 AM 54.7 °F - 51.3 °F 88% 30.03 in 5.0 mi SSW 17.3 mph - 0.02 in Rain Light Rain
10:15 AM 54.7 °F - 51.8 °F 90% 30.03 in 4.0 mi SSW 15.0 mph 18.4 mph 0.03 in Rain Rain
10:35 AM 55.4 °F - 51.8 °F 88% 30.02 in 2.0 mi SSW 11.5 mph - N/A Rain Rain
11:15 AM 54.7 °F - 52.9 °F 94% 30.01 in 3.0 mi SSW 9.2 mph - 0.02 in Rain Light Rain
11:35 AM 54.7 °F - 52.9 °F 94% 29.99 in 2.5 mi SSW 12.7 mph - 0.09 in Rain Heavy Rain
11:55 AM 55.0 °F - 53.6 °F 95% 29.94 in 2.5 mi South 15.0 mph 19.6 mph 0.19 in Rain Rain
12:35 PM 56.3 °F - 54.5 °F 94% 29.96 in 5.0 mi SSW 15.0 mph - 0.03 in   Light Drizzle
12:55 PM 57.4 °F - 55.8 °F 94% 29.93 in 4.0 mi South 15.0 mph - 0.06 in Rain Rain
1:15 PM 57.9 °F - 56.3 °F 94% 29.92 in 10.0 mi SSW 15.0 mph - N/A Rain Light Rain
1:35 PM 59.9 °F - 58.3 °F 94% 29.90 in 10.0 mi South 16.1 mph 25.3 mph N/A   Overcast
1:55 PM 59.9 °F - 58.1 °F 94% 29.89 in 10.0 mi SSW 18.4 mph 23.0 mph N/A   Overcast
2:15 PM 60.1 °F - 58.1 °F 93% 29.88 in 10.0 mi SSW 16.1 mph 24.2 mph N/A   Overcast
2:35 PM 60.3 °F - 58.1 °F 93% 29.87 in 10.0 mi South 19.6 mph - N/A   Overcast
2:55 PM 60.4 °F - 58.1 °F 92% 29.85 in 10.0 mi South 16.1 mph - N/A   Overcast
3:35 PM 61.2 °F - 59.0 °F 93% 29.84 in 4.0 mi South 15.0 mph - N/A   Overcast
3:55 PM 61.7 °F - 59.4 °F 92% 29.84 in 4.0 mi South 12.7 mph 20.7 mph N/A   Overcast
4:15 PM 62.6 °F - 60.1 °F 91% 29.85 in 4.0 mi South 10.4 mph - N/A   Overcast
4:35 PM 62.8 °F - 60.4 °F 92% 29.85 in 3.0 mi SSW 11.5 mph - N/A   Overcast
4:55 PM 63.1 °F - 60.8 °F 92% 29.84 in 3.0 mi South 10.4 mph - N/A   Overcast
5:15 PM 63.1 °F - 60.8 °F 92% 29.84 in 3.0 mi South 10.4 mph - N/A   Overcast
5:35 PM 63.5 °F - 60.8 °F 91% 29.84 in 3.0 mi South 11.5 mph - N/A   Overcast
5:55 PM 63.7 °F - 61.0 °F 91% 29.84 in 3.0 mi South 10.4 mph - N/A   Mostly Cloudy
6:15 PM 63.5 °F - 61.2 °F 92% 29.84 in 4.0 mi South 8.1 mph - N/A   Mostly Cloudy
6:35 PM 63.7 °F - 61.2 °F 91% 29.83 in 4.0 mi South 5.8 mph - N/A   Overcast
6:55 PM 63.5 °F - 61.2 °F 92% 29.83 in 4.0 mi South 5.8 mph - N/A   Overcast
7:15 PM 64.4 °F - 62.1 °F 92% 29.84 in 5.0 mi SSW 8.1 mph - N/A   Overcast
7:35 PM 64.9 °F - 62.1 °F 90% 29.84 in 5.0 mi SSW 8.1 mph - N/A   Overcast
7:55 PM 66.2 °F - 62.6 °F 88% 29.83 in 5.0 mi South 12.7 mph - N/A   Scattered Clouds
8:15 PM 65.3 °F - 62.1 °F 89% 29.83 in 5.0 mi South 12.7 mph - N/A   Clear
8:35 PM 66.2 °F - 62.6 °F 88% 29.82 in 7.0 mi South 13.8 mph 21.9 mph N/A   Clear
8:55 PM 66.2 °F - 62.6 °F 88% 29.81 in 7.0 mi South 13.8 mph - N/A   Clear
9:15 PM 66.0 °F - 61.7 °F 86% 29.81 in 7.0 mi South 17.3 mph 23.0 mph N/A   Clear
9:35 PM 66.2 °F - 61.9 °F 86% 29.81 in 10.0 mi SSW 15.0 mph - N/A   Clear
9:55 PM 67.1 °F - 62.1 °F 84% 29.80 in 10.0 mi South 16.1 mph 24.2 mph N/A   Clear
10:15 PM 67.1 °F - 62.6 °F 85% 29.79 in 10.0 mi South 15.0 mph 21.9 mph N/A   Clear
10:35 PM 67.1 °F - 62.6 °F 85% 29.80 in 7.0 mi SSW 13.8 mph 18.4 mph N/A   Mostly Cloudy
10:55 PM 67.1 °F - 62.6 °F 85% 29.81 in 10.0 mi SSW 9.2 mph - N/A   Overcast
11:15 PM 66.2 °F - 62.6 °F 88% 29.80 in 7.0 mi SSE 5.8 mph - N/A   Overcast
11:35 PM 65.7 °F - 62.2 °F 89% 29.79 in 7.0 mi SSE 3.5 mph - N/A   Overcast
11:55 PM 66.2 °F - 62.6 °F 88% 29.77 in 7.0 mi SE 4.6 mph - N/A   Overcast